Doha, Qatar

11:19 AM AST on February 25, 2017 (GMT +0300)
Doha International

Weather History for OTBD - February, 2013

Change the Weather History Date:

Friday, February 15, 2013

  Actual Average Record
Temperature  
Mean Temperature 68 °F -  
Max Temperature 76 °F 76 °F 87 °F (2008)
Min Temperature 60 °F 60 °F 41 °F (2005)
Cooling Degree Days 3    
Growing Degree Days 18 (Base 50)    
Moisture  
Dew Point 56 °F    
Average Humidity 66    
Maximum Humidity 83    
Minimum Humidity 38    
Precipitation  
Precipitation 0.00 in 0.02 in - ()
Sea Level Pressure  
Sea Level Pressure 30.05 in    
Wind  
Wind Speed 8 mph ()    
Max Wind Speed 14 mph    
Max Gust Speed -    
Visibility 5.8 miles    
Events      
Averages and records for this station are not official NWS values.
T = Trace of Precipitation, MM = Missing Value Source: Averaged Metar Reports

Daily Weather History Graph

Daily Weather History Graph

Search for Another Location

Airport or City:

Trip Planner

Search our weather history database for the weather conditions in past years. The results will help you decide how hot, cold, wet, or windy it might be!

Date:

Astronomy

Feb. 15, 2013 Rise Set
Actual Time 6:08 AM AST 5:27 PM AST
Civil Twilight 5:44 AM AST 5:51 PM AST
Nautical Twilight 5:18 AM AST 6:17 PM AST
Astronomical Twilight 4:51 AM AST 6:44 PM AST
Moon 9:08 AM AST (2/15) 10:24 PM AST (2/15)
Length of Visible Light 12h 06m
Length of Day
11h 19m
Waxing Crescent, 27% of the Moon is Illuminated
Feb 15
Waxing Crescent
Feb 17
First Quarter
Feb 25
Full
Mar 5
Last Quarter
Mar 11
New

Hourly Weather History & Observations

Time (AST) Temp. Dew Point Humidity Pressure Visibility Wind Dir Wind Speed Gust Speed Precip Events Conditions
12:00 AM 62.6 °F 48.2 °F 59% 30.04 in - NW 11.5 mph - N/A   Clear
1:30 AM 62.6 °F 50.0 °F 63% 30.04 in - NW 10.4 mph - N/A   Clear
2:00 AM 60.8 °F 50.0 °F 68% 30.04 in - NW 9.2 mph - N/A   Clear
3:00 AM 61 °F 52 °F 64% 30.04 in 6 mi NW 10.4 mph - -  
3:00 AM 60.8 °F 51.8 °F 72% 30.04 in - NW 10.4 mph - N/A   Clear
3:30 AM 60.8 °F 51.8 °F 72% 30.01 in - NW 9.2 mph - N/A   Clear
4:00 AM 60.8 °F 53.6 °F 77% 30.01 in - NW 9.2 mph - N/A   Clear
4:30 AM 60.8 °F 51.8 °F 72% 30.04 in - NW 5.8 mph - N/A   Clear
5:00 AM 60.8 °F 51.8 °F 72% 30.04 in - WNW 5.8 mph - N/A   Clear
5:30 AM 60.8 °F 51.8 °F 72% 30.04 in - WNW 8.1 mph - N/A   Clear
6:00 AM 60.8 °F 51.8 °F 72% 30.06 in - NW 9.2 mph - N/A   Clear
6:30 AM 60.8 °F 51.8 °F 72% 30.06 in - NW 9.2 mph - N/A   Clear
7:00 AM 62.6 °F 53.6 °F 72% 30.09 in - NW 9.2 mph - N/A   Clear
7:30 AM 64.4 °F 53.6 °F 68% 30.09 in - NW 9.2 mph - N/A   Clear
8:00 AM 64.4 °F 53.6 °F 68% 30.09 in - NW 10.4 mph - N/A   Clear
8:30 AM 66.2 °F 53.6 °F 64% 30.09 in - NW 9.2 mph - N/A   Clear
9:00 AM 67 °F 54 °F 54% 30.12 in 6 mi NW 9.2 mph - -  
9:00 AM 68.0 °F 53.6 °F 60% 30.09 in - NW 9.2 mph - N/A   Clear
9:30 AM 69.8 °F 55.4 °F 60% 30.09 in - NW 10.4 mph - N/A   Clear
10:00 AM 71.6 °F 55.4 °F 57% 30.09 in - NNW 9.2 mph - N/A   Clear
10:30 AM 73.4 °F 55.4 °F 53% 30.09 in - North 12.7 mph - N/A   Clear
11:00 AM 73.4 °F 55.4 °F 53% 30.09 in - North 12.7 mph - N/A   Clear
11:30 AM 75.2 °F 53.6 °F 47% 30.06 in - North 13.8 mph - N/A   Clear
12:00 PM 75.2 °F 55.4 °F 50% 30.06 in - North 12.7 mph - N/A   Clear
12:30 PM 75.2 °F 57.2 °F 53% 30.06 in - North 11.5 mph - N/A   Clear
1:00 PM 75.2 °F 57.2 °F 53% 30.04 in - North 10.4 mph - N/A   Clear
1:30 PM 75.2 °F 55.4 °F 50% 30.04 in - North 11.5 mph - N/A   Clear
2:00 PM 75.2 °F 51.8 °F 44% 30.01 in - NNE 10.4 mph - N/A   Clear
3:00 PM 75 °F 54 °F 38% 30.03 in 7 mi NE 8.1 mph - -  
3:00 PM 75.2 °F 53.6 °F 47% 30.01 in - NE 8.1 mph - N/A   Clear
3:30 PM 73.4 °F 57.2 °F 57% 30.01 in - NE 8.1 mph - N/A   Clear
4:00 PM 73.4 °F 59.0 °F 61% 30.01 in - NNE 8.1 mph - N/A   Clear
4:30 PM 71.6 °F 59.0 °F 64% 30.04 in - NE 8.1 mph - N/A   Clear
5:00 PM 71.6 °F 59.0 °F 64% 30.04 in - NNE 8.1 mph - N/A   Clear
5:30 PM 69.8 °F 60.8 °F 73% 30.04 in - NNE 6.9 mph - N/A   Clear
6:00 PM 69.8 °F 60.8 °F 73% 30.04 in - NNE 5.8 mph - N/A   Clear
6:30 PM 69.8 °F 62.6 °F 78% 30.04 in - NNE 4.6 mph - N/A   Clear
7:00 PM 68.0 °F 62.6 °F 83% 30.04 in - NNE 4.6 mph - N/A   Clear
7:30 PM 68.0 °F 62.6 °F 83% 30.04 in - NE 3.5 mph - N/A   Clear
8:00 PM 68.0 °F 62.6 °F 83% 30.06 in - NNW 3.5 mph - N/A   Clear
8:30 PM 68.0 °F 62.6 °F 83% 30.06 in 5.6 mi North 4.6 mph - N/A   Unknown
9:00 PM 68 °F 64 °F 81% 30.07 in 6 mi North 4.6 mph - -   Haze
9:30 PM 68.0 °F 62.6 °F 83% 30.06 in 5.6 mi NNW 4.6 mph - N/A   Unknown
10:00 PM 68.0 °F 62.6 °F 83% 30.04 in 5.6 mi NNW 4.6 mph - N/A   Unknown
10:30 PM 68.0 °F 62.6 °F 83% 30.04 in 5.6 mi Variable 2.3 mph - N/A   Unknown
11:00 PM 68.0 °F 60.8 °F 78% 30.04 in 5.6 mi Variable 2.3 mph - N/A   Unknown
11:30 PM 66.2 °F 60.8 °F 83% 30.04 in 5.0 mi NNW 5.8 mph - N/A   Unknown